INTELSAT 40E (IS-40E)

Last updated on Sat Mar 14 2026 00:02:58 GMT+0000 (Coordinated Universal Time)

1 56174U 23052A 26071.38378028 -.00000174 00000+0 00000+0 0 9991 2 56174 0.0089 156.5234 0000813 240.8747 179.7718 1.00272240 10854
UTC large
Height (km)
Speed (km/s)
/
Latitude / Longitude
Inclination (degrees)
Orbital Period (minutes)
Azimuth
Elevation
Range (km)
Doppler Factor

Next 0 passes for location: London (51.5072 / 0.1276)

Sorry there are no passes over London.